| time (UTC) | temp C | wind direction | speed KPH | gust KPH | rain 1hr cm | rain 24hr cm | rain mn cm | humidity % | barometer mb |
| 20260505041618 | 13 | 15 | 12.9 | 29.0 | 0.00 | 0.00 | 0.00 | 45 | 1007.1 |
| 20260505041115 | 13 | 15 | 16.1 | 22.5 | 0.00 | 0.00 | 0.00 | 45 | 1007.2 |
| 20260505040613 | 13 | 13 | 8.0 | 20.9 | 0.00 | 0.00 | 0.00 | 45 | 1007.1 |
| 20260505040110 | 13 | 8 | 9.7 | 12.9 | 0.00 | 0.00 | 0.00 | 44 | 1007.2 |
| 20260505035606 | 13 | 343 | 16.1 | 27.4 | 0.00 | 0.00 | 0.00 | 43 | 1007.2 |
| 20260505035103 | 13 | 15 | 14.5 | 17.7 | 0.00 | 0.00 | 0.00 | 43 | 1007.2 |
| 20260505034600 | 13 | 1 | 12.9 | 17.7 | 0.00 | 0.00 | 0.00 | 44 | 1007.1 |
| 20260505034056 | 13 | 356 | 12.9 | 27.4 | 0.00 | 0.00 | 0.00 | 43 | 1007.0 |
| 20260505033553 | 13 | 350 | 17.7 | 32.2 | 0.00 | 0.00 | 0.00 | 43 | 1006.7 |
| 20260505033051 | 13 | 355 | 8.0 | 20.9 | 0.00 | 0.00 | 0.00 | 44 | 1007.5 |
| 20260505032549 | 13 | 4 | 11.3 | 32.2 | 0.00 | 0.00 | 0.00 | 43 | 1007.5 |
| 20260505032045 | 13 | 7 | 9.7 | 32.2 | 0.00 | 0.00 | 0.00 | 43 | 1007.1 |
| 20260505031542 | 13 | 346 | 16.1 | 29.0 | 0.00 | 0.00 | 0.00 | 43 | 1007.1 |
| 20260505031038 | 14 | 6 | 29.0 | 41.8 | 0.00 | 0.00 | 0.00 | 43 | 1006.7 |
| 20260505030536 | 14 | 4 | 22.5 | 38.6 | 0.00 | 0.00 | 0.00 | 43 | 1006.2 |
| 20260505030032 | 14 | 6 | 22.5 | 35.4 | 0.00 | 0.00 | 0.00 | 43 | 1006.7 |
| 20260505025527 | 14 | 351 | 9.7 | 20.9 | 0.00 | 0.00 | 0.00 | 44 | 1006.7 |
| 20260505025027 | 14 | 358 | 14.5 | 24.1 | 0.00 | 0.00 | 0.00 | 42 | 1006.7 |
| 20260505024523 | 14 | 339 | 19.3 | 29.0 | 0.00 | 0.00 | 0.00 | 42 | 1006.8 |
| 20260505024020 | 15 | 317 | 17.7 | 22.5 | 0.00 | 0.00 | 0.00 | 42 | 1006.7 |
| 20260505023517 | 15 | 344 | 11.3 | 16.1 | 0.00 | 0.00 | 0.00 | 42 | 1006.6 |
| 20260505023015 | 15 | 353 | 6.4 | 12.9 | 0.00 | 0.00 | 0.00 | 42 | 1006.1 |
| 20260505022513 | 15 | 344 | 8.0 | 24.1 | 0.00 | 0.00 | 0.00 | 41 | 1005.9 |
| 20260505022010 | 15 | 341 | 8.0 | 29.0 | 0.00 | 0.00 | 0.00 | 41 | 1005.7 |
| 20260505021506 | 15 | 302 | 17.7 | 33.8 | 0.00 | 0.00 | 0.00 | 41 | 1005.8 |
| 20260505021002 | 15 | 10 | 14.5 | 29.0 | 0.00 | 0.00 | 0.00 | 41 | 1005.6 |
| 20260505020457 | 16 | 351 | 8.0 | 25.7 | 0.00 | 0.00 | 0.00 | 41 | 1005.7 |
| 20260505015954 | 16 | 305 | 11.3 | 33.8 | 0.00 | 0.00 | 0.00 | 41 | 1005.3 |
| 20260505015451 | 17 | 286 | 11.3 | 27.4 | 0.00 | 0.00 | 0.00 | 39 | 1005.2 |
| 20260505014948 | 17 | 15 | 12.9 | 35.4 | 0.00 | 0.00 | 0.00 | 37 | 1005.1 |
| 20260505014445 | 17 | 7 | 17.7 | 35.4 | 0.00 | 0.00 | 0.00 | 36 | 1004.8 |
| 20260505013942 | 17 | 359 | 17.7 | 38.6 | 0.00 | 0.00 | 0.00 | 36 | 1004.8 |
| 20260505013439 | 17 | 23 | 29.0 | 37.0 | 0.00 | 0.00 | 0.00 | 35 | 1004.4 |
| 20260505012937 | 18 | 1 | 20.9 | 38.6 | 0.00 | 0.00 | 0.00 | 35 | 1004.5 |
| 20260505012436 | 18 | 352 | 22.5 | 25.7 | 0.00 | 0.00 | 0.00 | 34 | 1004.2 |
| 20260505011932 | 18 | 336 | 16.1 | 22.5 | 0.00 | 0.00 | 0.00 | 35 | 1003.8 |
| 20260505011428 | 18 | 7 | 20.9 | 35.4 | 0.00 | 0.00 | 0.00 | 34 | 1003.9 |
| 20260505010925 | 18 | 6 | 12.9 | 35.4 | 0.00 | 0.00 | 0.00 | 34 | 1003.5 |
| 20260505010420 | 19 | 5 | 11.3 | 27.4 | 0.00 | 0.00 | 0.00 | 34 | 1003.6 |
| 20260505005916 | 19 | 9 | 20.9 | 29.0 | 0.00 | 0.00 | 0.00 | 33 | 1003.4 |
| 20260505005413 | 20 | 11 | 8.0 | 25.7 | 0.00 | 0.00 | 0.00 | 34 | 1003.4 |
| 20260505004910 | 20 | 335 | 19.3 | 38.6 | 0.00 | 0.00 | 0.00 | 33 | 1003.2 |
| 20260505004407 | 20 | 309 | 16.1 | 37.0 | 0.00 | 0.00 | 0.00 | 33 | 1003.2 |
| 20260505003904 | 20 | 334 | 17.7 | 40.2 | 0.00 | 0.00 | 0.00 | 33 | 1002.8 |
| 20260505003401 | 21 | 9 | 11.3 | 29.0 | 0.00 | 0.00 | 0.00 | 33 | 1002.7 |
| 20260505002857 | 21 | 6 | 27.4 | 40.2 | 0.00 | 0.00 | 0.00 | 32 | 1002.3 |
| 20260505002354 | 21 | 5 | 8.0 | 27.4 | 0.00 | 0.00 | 0.00 | 33 | 1002.3 |
| 20260505001852 | 22 | 12 | 20.9 | 33.8 | 0.00 | 0.00 | 0.00 | 32 | 1002.3 |
| 20260505001349 | 22 | 353 | 16.1 | 27.4 | 0.00 | 0.00 | 0.00 | 32 | 1002.0 |
| 20260505000846 | 22 | 337 | 19.3 | 27.4 | 0.00 | 0.00 | 0.00 | 30 | 1002.1 |
| 20260505000344 | 22 | 354 | 12.9 | 27.4 | 0.00 | 0.00 | 0.00 | 31 | 1002.1 |
| 20260504235840 | 22 | 3 | 16.1 | 22.5 | 0.00 | 0.00 | 0.00 | 32 | 1002.0 |
| 20260504235338 | 23 | 333 | 14.5 | 33.8 | 0.00 | 0.00 | 0.00 | 31 | 1001.9 |
| 20260504234834 | 23 | 344 | 19.3 | 35.4 | 0.00 | 0.00 | 0.00 | 31 | 1002.0 |
| 20260504234332 | 23 | 341 | 22.5 | 37.0 | 0.00 | 0.00 | 0.00 | 30 | 1001.8 |
| 20260504233828 | 23 | 46 | 12.9 | 25.7 | 0.00 | 0.00 | 0.00 | 30 | 1001.8 |
| 20260504233324 | 23 | 1 | 9.7 | 35.4 | 0.00 | 0.00 | 0.00 | 30 | 1001.7 |
| 20260504232821 | 23 | 341 | 19.3 | 29.0 | 0.00 | 0.00 | 0.00 | 30 | 1001.5 |
| 20260504232318 | 23 | 337 | 24.1 | 38.6 | 0.00 | 0.00 | 0.00 | 31 | 1001.7 |
| 20260504231815 | 24 | 316 | 6.4 | 29.0 | 0.00 | 0.00 | 0.00 | 31 | 1001.5 |
| 20260504231311 | 24 | 299 | 14.5 | 37.0 | 0.00 | 0.00 | 0.00 | 31 | 1001.4 |
| 20260504230808 | 24 | 44 | 19.3 | 33.8 | 0.00 | 0.00 | 0.00 | 31 | 1001.5 |
| 20260504230306 | 24 | 20 | 22.5 | 32.2 | 0.00 | 0.00 | 0.00 | 31 | 1001.4 |
| 20260504225804 | 25 | 349 | 17.7 | 29.0 | 0.00 | 0.00 | 0.00 | 31 | 1001.2 |
| 20260504225300 | 25 | 295 | 25.7 | 33.8 | 0.00 | 0.00 | 0.00 | 31 | 1001.0 |
| 20260504224757 | 25 | 330 | 14.5 | 32.2 | 0.00 | 0.00 | 0.00 | 32 | 1001.1 |
| 20260504224255 | 25 | 328 | 24.1 | 38.6 | 0.00 | 0.00 | 0.00 | 31 | 1000.9 |
| 20260504223751 | 25 | 50 | 12.9 | 25.7 | 0.00 | 0.00 | 0.00 | 33 | 1001.0 |
| 20260504223247 | 25 | 306 | 16.1 | 25.7 | 0.00 | 0.00 | 0.00 | 33 | 1000.5 |
| 20260504222744 | 26 | 333 | 11.3 | 25.7 | 0.00 | 0.00 | 0.00 | 34 | 1000.7 |
| 20260504222241 | 26 | 5 | 9.7 | 27.4 | 0.00 | 0.00 | 0.00 | 34 | 1000.5 |
| 20260504221738 | 26 | 314 | 12.9 | 27.4 | 0.00 | 0.00 | 0.00 | 34 | 1000.3 |
| 20260504221235 | 27 | 348 | 12.9 | 20.9 | 0.00 | 0.00 | 0.00 | 35 | 1000.1 |
| 20260504220731 | 27 | 358 | 12.9 | 20.9 | 0.00 | 0.00 | 0.00 | 32 | 1000.2 |
| 20260504220229 | 26 | 309 | 3.2 | 17.7 | 0.00 | 0.00 | 0.00 | 34 | 1000.0 |
| 20260504215726 | 26 | 337 | 8.0 | 20.9 | 0.00 | 0.00 | 0.00 | 34 | 1000.0 |
| 20260504215217 | 26 | 324 | 3.2 | 20.9 | 0.00 | 0.00 | 0.00 | 36 | 1000.2 |
| 20260504214712 | 26 | 340 | 12.9 | 16.1 | 0.00 | 0.00 | 0.00 | 33 | 1000.2 |
| 20260504214209 | 26 | 338 | 9.7 | 22.5 | 0.00 | 0.00 | 0.00 | 33 | 1000.0 |
| 20260504213706 | 27 | 315 | 11.3 | 25.7 | 0.00 | 0.00 | 0.00 | 34 | 1000.0 |
| 20260504213202 | 27 | 284 | 20.9 | 29.0 | 0.00 | 0.00 | 0.00 | 30 | 999.9 |
| 20260504212659 | 28 | 319 | 14.5 | 20.9 | 0.00 | 0.00 | 0.00 | 28 | 999.6 |
| 20260504212155 | 28 | 284 | 16.1 | 17.7 | 0.00 | 0.00 | 0.00 | 26 | 999.7 |
| 20260504211653 | 28 | 304 | 6.4 | 14.5 | 0.00 | 0.00 | 0.00 | 25 | 999.8 |
| 20260504211149 | 27 | 280 | 6.4 | 14.5 | 0.00 | 0.00 | 0.00 | 27 | 999.8 |
| 20260504210647 | 28 | 65 | 12.9 | 17.7 | 0.00 | 0.00 | 0.00 | 26 | 999.8 |
| 20260504210143 | 27 | 285 | 8.0 | 20.9 | 0.00 | 0.00 | 0.00 | 26 | 999.9 |
| 20260504205641 | 28 | 289 | 8.0 | 14.5 | 0.00 | 0.00 | 0.00 | 27 | 999.9 |
| 20260504205138 | 27 | 322 | 11.3 | 17.7 | 0.00 | 0.00 | 0.00 | 26 | 999.8 |
| 20260504204637 | 27 | 304 | 8.0 | 14.5 | 0.00 | 0.00 | 0.00 | 28 | 1000.0 |
| 20260504204135 | 27 | 298 | 14.5 | 22.5 | 0.00 | 0.00 | 0.00 | 27 | 999.9 |
| 20260504203633 | 28 | 295 | 9.7 | 22.5 | 0.00 | 0.00 | 0.00 | 28 | 999.9 |
| 20260504203131 | 27 | 321 | 8.0 | 16.1 | 0.00 | 0.00 | 0.00 | 28 | 1000.0 |
| 20260504202626 | 27 | 293 | 14.5 | 20.9 | 0.00 | 0.00 | 0.00 | 27 | 999.9 |
| 20260504202123 | 27 | 285 | 8.0 | 16.1 | 0.00 | 0.00 | 0.00 | 28 | 1000.0 |
| 20260504201620 | 27 | 301 | 11.3 | 17.7 | 0.00 | 0.00 | 0.00 | 30 | 1000.0 |
| 20260504201118 | 27 | 250 | 8.0 | 27.4 | 0.00 | 0.00 | 0.00 | 29 | 1000.1 |
| 20260504200615 | 27 | 312 | 14.5 | 25.7 | 0.00 | 0.00 | 0.00 | 30 | 999.9 |
| 20260504200111 | 28 | 284 | 11.3 | 24.1 | 0.00 | 0.00 | 0.00 | 30 | 1000.1 |
| 20260504195607 | 27 | 285 | 8.0 | 12.9 | 0.00 | 0.00 | 0.00 | 32 | 1000.0 |
| 20260504195103 | 27 | 293 | 12.9 | 24.1 | 0.00 | 0.00 | 0.00 | 31 | 1000.3 |
| 20260504194600 | 26 | 295 | 9.7 | 22.5 | 0.00 | 0.00 | 0.00 | 32 | 1000.1 |
| 20260504194055 | 27 | 306 | 12.9 | 27.4 | 0.00 | 0.00 | 0.00 | 32 | 1000.1 |
| 20260504193552 | 27 | 262 | 4.8 | 17.7 | 0.00 | 0.00 | 0.00 | 33 | 1000.3 |
| 20260504193051 | 27 | 232 | 17.7 | 24.1 | 0.00 | 0.00 | 0.00 | 30 | 1000.2 |
| 20260504192549 | 28 | 356 | 6.4 | 29.0 | 0.00 | 0.00 | 0.00 | 34 | 1000.3 |
| 20260504192047 | 27 | 251 | 4.8 | 12.9 | 0.00 | 0.00 | 0.00 | 33 | 1000.2 |
| 20260504191544 | 26 | 326 | 6.4 | 16.1 | 0.00 | 0.00 | 0.00 | 33 | 1000.1 |
| 20260504191040 | 27 | 278 | 9.7 | 20.9 | 0.00 | 0.00 | 0.00 | 33 | 1000.1 |
| 20260504190537 | 27 | 244 | 14.5 | 33.8 | 0.00 | 0.00 | 0.00 | 32 | 1000.2 |
| 20260504190032 | 27 | 346 | 9.7 | 24.1 | 0.00 | 0.00 | 0.00 | 32 | 1000.2 |
| 20260504185530 | 26 | 266 | 8.0 | 11.3 | 0.00 | 0.00 | 0.00 | 34 | 1000.1 |
| 20260504185026 | 27 | 278 | 11.3 | 25.7 | 0.00 | 0.00 | 0.00 | 33 | 1000.4 |
| 20260504184521 | 27 | 258 | 8.0 | 17.7 | 0.00 | 0.00 | 0.00 | 32 | 1000.4 |
| 20260504184017 | 27 | 286 | 9.7 | 17.7 | 0.00 | 0.00 | 0.00 | 32 | 1000.1 |
| 20260504183515 | 27 | 205 | 6.4 | 12.9 | 0.00 | 0.00 | 0.00 | 37 | 1000.3 |
| 20260504183013 | 27 | 279 | 4.8 | 17.7 | 0.00 | 0.00 | 0.00 | 34 | 1000.3 |
| 20260504182509 | 27 | 40 | 6.4 | 22.5 | 0.00 | 0.00 | 0.00 | 33 | 1000.2 |
| 20260504182006 | 27 | 300 | 14.5 | 25.7 | 0.00 | 0.00 | 0.00 | 33 | 1000.3 |
| 20260504181503 | 27 | 232 | 8.0 | 17.7 | 0.00 | 0.00 | 0.00 | 32 | 1000.2 |
| 20260504181002 | 26 | 275 | 6.4 | 16.1 | 0.00 | 0.00 | 0.00 | 33 | 1000.2 |
| 20260504180500 | 27 | 306 | 8.0 | 33.8 | 0.00 | 0.00 | 0.00 | 33 | 1000.3 |
| 20260504175958 | 27 | 287 | 12.9 | 20.9 | 0.00 | 0.00 | 0.00 | 33 | 1000.3 |
| 20260504175455 | 27 | 254 | 11.3 | 14.5 | 0.00 | 0.00 | 0.00 | 35 | 1000.2 |
| 20260504174953 | 27 | 309 | 8.0 | 25.7 | 0.00 | 0.00 | 0.00 | 35 | 1000.2 |
| 20260504174450 | 26 | 301 | 9.7 | 16.1 | 0.00 | 0.00 | 0.00 | 38 | 1000.2 |
| 20260504173947 | 26 | 222 | 8.0 | 11.3 | 0.00 | 0.00 | 0.00 | 37 | 1000.4 |
| 20260504173443 | 27 | 259 | 14.5 | 17.7 | 0.00 | 0.00 | 0.00 | 36 | 1000.5 |
| 20260504172941 | 27 | 266 | 6.4 | 22.5 | 0.00 | 0.00 | 0.00 | 39 | 1000.5 |
| 20260504172437 | 26 | 283 | 4.8 | 14.5 | 0.00 | 0.00 | 0.00 | 39 | 1000.3 |
| 20260504171934 | 26 | 261 | 8.0 | 14.5 | 0.00 | 0.00 | 0.00 | 39 | 1000.5 |
| 20260504171431 | 26 | 232 | 11.3 | 14.5 | 0.00 | 0.00 | 0.00 | 37 | 1000.5 |
| 20260504170928 | 26 | 242 | 9.7 | 12.9 | 0.00 | 0.00 | 0.00 | 43 | 1000.5 |
| 20260504170424 | 26 | 221 | 4.8 | 12.9 | 0.00 | 0.00 | 0.00 | 44 | 1000.7 |
| 20260504160343 | 23 | 206 | 8.0 | 11.3 | 0.00 | 0.00 | 0.00 | 49 | 1000.8 |
| 20260504150808 | 22 | 218 | 4.8 | 8.0 | 0.00 | 0.00 | 0.00 | 53 | 1000.9 |
| 20260504150304 | 22 | 259 | 8.0 | 11.3 | 0.00 | 0.00 | 0.00 | 52 | 1001.1 |
| 20260504141229 | 18 | 256 | 4.8 | 11.3 | 0.00 | 0.00 | 0.00 | 61 | 1001.4 |
| 20260504140725 | 18 | 209 | 4.8 | 11.3 | 0.00 | 0.00 | 0.00 | 61 | 1001.4 |
| 20260504140221 | 18 | 218 | 4.8 | 9.7 | 0.00 | 0.00 | 0.00 | 62 | 1001.6 |
| 20260504130650 | 13 | 222 | 9.7 | 11.3 | 0.00 | 0.00 | 0.00 | 68 | 1001.5 |
| 20260504130146 | 13 | 230 | 4.8 | 9.7 | 0.00 | 0.00 | 0.00 | 69 | 1001.6 |
| 20260504120110 | 10 | 218 | 3.2 | 4.8 | 0.00 | 0.00 | 0.00 | 73 | 1002.2 |
| 20260504110538 | 10 | 219 | 1.6 | 1.6 | 0.00 | 0.00 | 0.00 | 75 | 1002.2 |
| 20260504100459 | 10 | 219 | 0.0 | 0.0 | 0.00 | 0.00 | 0.00 | 74 | 1002.8 |
| 20260504081858 | 10 | 215 | 1.6 | 3.2 | 0.00 | 0.00 | 0.00 | 70 | 1004.3 |
| 20260504081354 | 10 | 215 | 1.6 | 1.6 | 0.00 | 0.00 | 0.00 | 70 | 1004.2 |
| 20260504080850 | 10 | 215 | 1.6 | 3.2 | 0.00 | 0.00 | 0.00 | 69 | 1004.4 |
| 20260504080348 | 10 | 215 | 1.6 | 1.6 | 0.00 | 0.00 | 0.00 | 69 | 1004.6 |
| 20260504070315 | 11 | 223 | 1.6 | 3.2 | 0.00 | 0.00 | 0.00 | 64 | 1005.3 |
| 20260504060236 | 12 | 222 | 4.8 | 4.8 | 0.00 | 0.00 | 0.00 | 60 | 1006.2 |
| 20260504050703 | 13 | 219 | 3.2 | 3.2 | 0.00 | 0.00 | 0.00 | 53 | 1006.8 |
| 20260504050200 | 13 | 219 | 3.2 | 3.2 | 0.00 | 0.00 | 0.00 | 53 | 1006.7 |
| 20260504045657 | 13 | 219 | 3.2 | 3.2 | 0.00 | 0.00 | 0.00 | 53 | 1006.7 |